Regional Weather Roundup
Issued by NWS

Home | Current Version | Previous Version | Text Only | Print | Product List | Glossary On
Versions: 1 2 3 4 5 6 7 8 9 10 11 12 13 14 15 16 17 18 19 20 21 22 23 24 25 26 27 28 29 30 31 32 33 34 35 36 37 38 39 40 41 42 43 44 45 46 47 48 49 50
000
ASUS44 KBMX 180710
RWRAL

ALABAMA REGIONAL WEATHER ROUNDUP
NATIONAL WEATHER SERVICE BIRMINGHAM AL
200 AM CDT FRI AUG 18 2017

NOTE: "FAIR" INDICATES FEW OR NO CLOUDS BELOW 12,000 FEET
WITH NO SIGNIFICANT WEATHER AND/OR OBSTRUCTIONS TO VISIBILITY.

THE REMARK "TC" DENOTES TEMPERATURE IN DEGREES CELSIUS.

ALZ001>011-014-016>018-020-180800-
NORTH ALABAMA

CITY           SKY/WX    TMP DP  RH WIND       PRES   REMARKS
MUSCLE SHOALS  PTCLDY    76  73  91 SW3       29.97F
HUNTSVILLE     PTCLDY    76  75  97 SW5       29.97S
DECATUR        CLOUDY    77  76  96 SW7       29.97F
HALEYVILLE     CLOUDY    73  73 100 W6        30.01F
GADSDEN        PTCLDY    76  74  93 CALM      29.99F
$$

ALZ012-013-022-023-030>036-040>044-180800-
WEST CENTRAL ALABAMA

CITY           SKY/WX    TMP DP  RH WIND       PRES   REMARKS
TUSCALOOSA     CLEAR     77  75  93 SW5       29.98F
DEMOPOLIS        N/A     77  74  92 CALM      29.99F
$$

ALZ015-024>026-033>036-041>044-180800-
CENTRAL ALABAMA

CITY           SKY/WX    TMP DP  RH WIND       PRES   REMARKS
BIRMINGHAM     PTCLDY    81  72  74 SW9       30.01F
MONTGOMERY     CLEAR     79  73  82 S3        29.99F
SHELBY CO ARPT PTCLDY    78  75  90 CALM      30.00F
MAXWELL AFB    CLEAR     78  75  92 CALM      29.98F
GREENVILLE     FAIR      78  71  79 SW7       30.01F
SELMA          FAIR      77  73  88 SW5       29.99F
PRATTVILLE     FAIR      74  74 100 CALM      29.99F
BESSEMER       FAIR      78  73  84 SW7       30.01F
TALLADEGA      FAIR      75  73  93 MISG      30.00S
PELL CITY      SUNNY     77  77 100 CALM      29.99F
MARION         LGT RAIN  77  75  92 CALM      29.99F
SYLACAUGA      FAIR      74  74 100 CALM      30.00F
$$

ALZ019-021-028-029-037-038-045>048-180800-
EAST CENTRAL ALABAMA

CITY           SKY/WX    TMP DP  RH WIND       PRES   REMARKS
ANNISTON       CLEAR     74  72  93 CALM      30.00F
ALEXANDER CITY CLEAR     73  72  96 CALM      30.01F
AUBURN         NOT AVBL
$$

ALZ051>064-180800-
SOUTHWEST ALABAMA

CITY           SKY/WX    TMP DP  RH WIND       PRES   REMARKS
MOBILE         CLEAR     79  77  94 W3        30.04F
BROOKLEY FIELD PTCLDY    82  80  94 W3        30.03F HX  94
EVERGREEN      CLEAR     78  75  90 SW5       30.02F
$$

ALZ049-050-065>069-180800-
SOUTHEAST ALABAMA

CITY           SKY/WX    TMP DP  RH WIND       PRES   REMARKS
DOTHAN         CLEAR     78  77  96 W7        30.04F
OZARK          CLEAR     75  73  93 W5        30.01F
TROY           CLEAR     75  75 100 CALM      30.02F
EUFAULA        FAIR      74  73  97 CALM      29.99F
$$



USA.gov is the U.S. government's official web portal to all federal, state and local government web resources and services.